[[{"header":{"parameterUnit":"m.s-1","parameterCategory":1,"la1":30.2991,"la2":30.254,"lo1":-89.0895,"lo2":-89.0444,"dy":0.0017,"dx":0.0017,"nx":28,"ny":28,"refTime":"2024-06-30T21:00:00:Z","depth":0,"parameterNumber":2,"parameterNumberName":"U-component_of_WINDS"},"data":[0,0,0,0,0,0,0,0,0,0,0,0,0,0,0,0,0,0,0,0,0,0,0,0,0,0,0,0,0,0,0,0,0,0,0,0,0,0,0,0,0,0,0,0,0,0,0,0,0,0,0,0,0,0,0,0,0,0,0.8818,0.882,0,0.9034,0.9037,0.9039,0.9097,0.9096,0.9095,0.9093,0.9318,0.9325,0.9332,0,0,0,0,0,0,0,0,0,0,0,0,0,0.8454,0.8461,0.8818,0.8821,0.8823,0.9034,0.9037,0.904,0.9097,0.9096,0.9094,0.9093,0.9315,0.9324,0.9332,0,0,0,0,0,0,0,0,0,0,0,0,0,0.8636,0.8463,0.8817,0.8877,0.8885,0.9033,0.9037,0.9041,0.9098,0.9096,0.9094,0.9092,0.9313,0.9323,0.9334,0.9439,0,0,0.9367,0.9371,0,0,0,0,0,0,0,0,0.8625,0.8649,0.8866,0.8873,0.8882,0.9037,0.8991,0.9174,0.9098,0.9017,0.9093,0.9091,0.9226,0.9244,0.9289,0.945,0.9459,0.9368,0.9374,0.9379,0.9382,0,0,0,0,0,0,0,0.8613,0.864,0.8904,0.8869,0.8879,0.8893,0.8917,0.9026,0.913,0.9024,0.9029,0.9053,0.923,0.9278,0.9294,0.9463,0.9367,0.9377,0.9383,0.9388,0.9718,0.972,0,0,0,0,0,0,0.859,0.8629,0.8897,0.891,0.8746,0.8901,0.8928,0.8989,0.9129,0.9148,0.9055,0.9055,0.9261,0.9282,0.9303,0.9433,0.9379,0.9389,0.9395,0.9715,0.9718,0.9721,0,0,0,0,0,0,0.8582,0.8613,0.8888,0.8771,0.8807,0.891,0.8978,0.8994,0.9043,0.9152,0.9171,0.9085,0.926,0.9287,0.9404,0.9442,0.9394,0.9403,0.9713,0.9716,0.9719,0.9696,0,0,0,0,0,0,0.8571,0.861,0.8651,0.8772,0.8813,0.8985,0.8981,0.9,0.9061,0.9063,0.9185,0.9204,0.9261,0.9387,0.9414,0.9456,0.9412,0.971,0.9714,0.9718,0.9694,0.9698,0.9702,0,0,0,0,0,0.8558,0.8637,0.8653,0.8685,0.8867,0.8988,0.9011,0.9075,0.9064,0.9106,0.9175,0.92,0.9433,0.9399,0.943,0.9475,0.9708,0.9713,0.9718,0.9692,0.9697,0.9702,0,0,0,0,0,0,0.852,0.8654,0.8673,0.8794,0.8878,0.8997,0.9052,0.9079,0.917,0.9168,0.9244,0.9271,0.9381,0.944,0.9399,0.9583,0.9571,0.9582,0.954,0.9546,0.955,0.9533,0.9421,0,0,0,0,0,0.8525,0.8612,0.8725,0.882,0.8861,0.8949,0.9004,0.9045,0.9137,0.9173,0.9252,0.934,0.9433,0.9493,0.9585,0.9702,0.9729,0.9748,0.9752,0.9755,0.9764,0.9828,0.9837,0.9738,0.9738,0.9737,0,0,0.8538,0.8622,0.8672,0.8814,0.8885,0.8973,0.8979,0.9073,0.9138,0.9188,0.9302,0.9362,0.9466,0.9582,0.9637,0.9634,0.9797,0.9762,0.9763,0.9771,0.9834,0.9844,0.9852,0.9741,0.974,0.974,0,0,0.8605,0.8678,0.8764,0.8834,0.894,0.8998,0.9018,0.9132,0.9174,0.9289,0.9327,0.9407,0.9566,0.9637,0.9694,0.9785,0.981,0.9813,0.9834,0.9895,0.9903,0.991,0.9941,0.9951,0.9822,0.9822,0.9822,0,0.8608,0.8741,0.8805,0.8896,0.8956,0.9004,0.9091,0.9156,0.9287,0.9328,0.9322,0.9521,0.9594,0.9726,0.9748,0.9793,0.9818,0.9799,0.9897,0.9905,0.9912,0.9942,0.9954,0.9821,0.9821,0.9821,0.9821,0,0.8737,0.8829,0.8886,0.9009,0.9076,0.9165,0.9242,0.9302,0.9336,0.9394,0.9509,0.9598,0.9708,0.9742,0.9778,0.988,0.9874,0.9882,0.9871,0.992,0.995,0.9962,0.982,0.9821,0.9821,0.9821,0,0,0.8788,0.8944,0.8963,0.9019,0.9138,0.921,0.93,0.9405,0.9454,0.9543,0.9619,0.9751,0.9758,0.9823,0.9866,0.992,0.9984,0.9922,0.9925,0.9928,1.0098,1.0091,1.0103,1.0001,1.0003,1.0005,1.0089,0,0.8869,0.903,0.909,0.9222,0.9306,0.9351,0.9429,0.951,0.9566,0.9645,0.9707,0.9799,0.9802,0.9841,0.9896,0.9964,1.0019,0.9959,1.0072,1.0075,1.0043,1.0119,1.0112,1.0187,1.0101,1.0103,1.0105,0,0.8985,0.9072,0.9212,0.9318,0.9356,0.9425,0.9525,0.9601,0.9693,0.973,0.98,0.984,0.9934,0.9918,1.0048,1.0006,1.0056,1.0096,1.0101,1.0113,1.0092,1.0132,1.0212,1.0223,1.0124,1.0122,1.0121,0,0.9006,0.9158,0.9261,0.9307,0.9435,0.9481,0.9537,0.9627,0.9686,0.9773,0.9812,0.991,0.9963,1.0038,1.0102,1.0084,1.0226,1.0216,1.0259,1.0257,1.0286,1.0284,1.0374,1.032,1.032,1.032,1.0319,0,0.9089,0.9172,0.9271,0.9335,0.9429,0.9496,0.9587,0.9645,0.9725,0.98,0.9845,0.9914,0.9996,1.0075,1.0127,1.0226,1.025,1.0282,1.0294,1.0277,1.0273,1.031,1.0306,1.0323,1.0322,1.0321,1.0321,0,0.9128,0.9198,0.9312,0.9422,0.9452,0.9516,0.961,0.9673,0.9729,0.9823,0.9849,0.9938,1.0034,1.0105,1.023,1.0264,1.037,1.0383,1.0338,1.0344,1.0382,1.0377,1.05,1.0518,1.0452,1.0452,1.0453,0,0.9176,0.9241,0.9357,0.9409,0.9463,0.9548,0.9608,0.9676,0.9736,0.9844,0.9893,0.9991,1.0074,1.0224,1.03,1.0395,1.0411,1.0447,1.0426,1.0405,1.0409,1.0404,1.041,1.045,1.045,1.0451,1.0451,0,0.9253,0.9283,0.9367,0.9462,0.9531,0.9609,0.9689,0.9729,0.9811,0.9876,0.9973,1.0037,1.0162,1.0259,1.0361,1.0418,1.0448,1.0457,1.0472,1.0454,1.0424,1.0439,1.0344,1.0454,1.0453,1.0453,1.0453,1.0453,0.9297,0.9356,0.9445,0.9536,0.9602,0.9675,0.9738,0.9801,0.9883,0.999,1.0025,1.0125,1.0214,1.0354,1.0411,1.0491,1.0491,1.0512,1.0518,1.0522,1.0519,1.0412,1.051,1.051,1.051,1.051,1.051,0,0.9375,0.9434,0.9517,0.9625,0.9696,0.9716,0.9804,0.9862,0.9949,1.0029,1.0108,1.0219,1.0312,1.0395,1.0491,1.0539,1.0554,1.0562,1.0558,1.0571,1.0515,1.0491,1.0547,1.0547,1.0547,1.0547,1.0547,1.0547,0.9424,0.9523,0.9564,0.9696,0.9755,0.9852,0.99,0.9967,1.0031,1.0152,1.0229,1.0281,1.0362,1.0464,1.055,1.0572,1.0605,1.0608,1.0633,1.058,1.0575,1.057,1.0549,1.0615,1.0615,1.0682,1.0683,1.0683]},{"header":{"parameterUnit":"m.s-1","parameterCategory":1,"la1":30.2991,"la2":30.254,"lo1":-89.0895,"lo2":-89.0444,"dy":0.0017,"dx":0.0017,"nx":28,"ny":28,"refTime":"2024-06-30T21:00:00:Z","depth":0,"parameterNumber":3,"parameterNumberName":"V-component_of_WINDS"},"data":[0,0,0,0,0,0,0,0,0,0,0,0,0,0,0,0,0,0,0,0,0,0,0,0,0,0,0,0,0,0,0,0,0,0,0,0,0,0,0,0,0,0,0,0,0,0,0,0,0,0,0,0,0,0,0,0,0,0,3.8315,3.8315,0,3.8307,3.8307,3.8307,3.8267,3.8266,3.8265,3.8264,3.8253,3.8254,3.8255,0,0,0,0,0,0,0,0,0,0,0,0,0,3.8291,3.8292,3.8315,3.8315,3.8315,3.8307,3.8307,3.8307,3.8267,3.8265,3.8264,3.8263,3.8253,3.8254,3.8255,0,0,0,0,0,0,0,0,0,0,0,0,0,3.8294,3.8292,3.8315,3.8294,3.8292,3.8308,3.8307,3.8307,3.8267,3.8265,3.8264,3.8263,3.8253,3.8254,3.8255,3.829,0,0,3.8258,3.8258,0,0,0,0,0,0,0,0,3.8294,3.8295,3.8297,3.8295,3.8293,3.8287,3.8295,3.8301,3.8267,3.8276,3.8264,3.8262,3.8265,3.8265,3.8267,3.8289,3.8289,3.8258,3.8258,3.8259,3.8259,0,0,0,0,0,0,0,3.8294,3.8295,3.8312,3.8297,3.8295,3.8283,3.8282,3.8296,3.8279,3.8275,3.8272,3.8272,3.8264,3.8266,3.8266,3.8288,3.8258,3.8259,3.8259,3.8259,3.8334,3.8335,0,0,0,0,0,0,3.8297,3.8295,3.8312,3.8312,3.829,3.8285,3.8284,3.829,3.8279,3.8276,3.8273,3.827,3.8265,3.8265,3.8266,3.8302,3.8259,3.826,3.826,3.8333,3.8334,3.8336,0,0,0,0,0,0,3.8297,3.8299,3.8313,3.8303,3.8304,3.8287,3.8294,3.8291,3.8293,3.8277,3.8274,3.8279,3.8264,3.8264,3.8283,3.8301,3.826,3.8261,3.8331,3.8333,3.8335,3.8377,0,0,0,0,0,0,3.8296,3.8299,3.8313,3.8303,3.8304,3.8331,3.8296,3.8292,3.8295,3.829,3.8281,3.8278,3.8263,3.8282,3.8284,3.8302,3.8262,3.8329,3.8332,3.8334,3.8374,3.8381,3.8386,0,0,0,0,0,3.8295,3.8326,3.8314,3.8316,3.8322,3.8333,3.8333,3.8315,3.8296,3.8309,3.8299,3.8279,3.83,3.8284,3.8286,3.8305,3.8328,3.8331,3.8334,3.8371,3.8379,3.8386,0,0,0,0,0,0,3.8338,3.8324,3.8311,3.834,3.8337,3.8326,3.8341,3.8325,3.8327,3.8323,3.83,3.8299,3.832,3.8314,3.8297,3.8335,3.831,3.8314,3.8338,3.8345,3.8351,3.835,3.8262,0,0,0,0,0,3.8351,3.8362,3.8349,3.8375,3.8375,3.8359,3.8363,3.8349,3.8346,3.8344,3.8336,3.8332,3.8337,3.8342,3.8346,3.8374,3.8369,3.8388,3.8394,3.8399,3.8401,3.8412,3.8418,3.8346,3.8346,3.8346,0,0,3.8377,3.8371,3.8379,3.8383,3.838,3.839,3.8358,3.8371,3.8377,3.8346,3.8362,3.8356,3.835,3.8373,3.8382,3.8369,3.842,3.8403,3.8407,3.8406,3.8416,3.8422,3.8429,3.8349,3.8348,3.8348,0,0,3.8429,3.8427,3.8447,3.8444,3.8439,3.8428,3.8433,3.8423,3.8418,3.8434,3.8409,3.8417,3.8428,3.8423,3.8423,3.8471,3.8451,3.8474,3.8504,3.8514,3.852,3.8525,3.8538,3.8544,3.8477,3.8477,3.8477,0,3.8462,3.8477,3.8459,3.8472,3.8473,3.8446,3.8464,3.8462,3.8459,3.846,3.8446,3.8456,3.8451,3.847,3.8482,3.8484,3.8486,3.8473,3.8521,3.8526,3.853,3.8542,3.8548,3.8479,3.8479,3.8479,3.8479,0,3.8515,3.8526,3.8542,3.8539,3.8542,3.8558,3.8541,3.8546,3.8532,3.8522,3.8537,3.8529,3.853,3.8534,3.8521,3.8551,3.8542,3.8525,3.8498,3.8539,3.855,3.8556,3.8483,3.8482,3.8481,3.8481,0,0,3.8592,3.8579,3.8584,3.8581,3.8574,3.8581,3.8595,3.8596,3.8599,3.8598,3.8606,3.8615,3.8598,3.8598,3.8584,3.8594,3.8628,3.8575,3.8574,3.8582,3.8656,3.8666,3.8673,3.8616,3.8617,3.8618,3.8655,0,3.8639,3.8661,3.8645,3.8669,3.8677,3.8651,3.8662,3.8657,3.8648,3.8652,3.8642,3.8647,3.8626,3.8625,3.8634,3.8622,3.8642,3.8619,3.8621,3.8621,3.862,3.8679,3.8691,3.8726,3.866,3.866,3.8661,0,3.8695,3.8696,3.8721,3.8709,3.8712,3.8722,3.872,3.8726,3.8719,3.8711,3.871,3.8693,3.8703,3.8679,3.8691,3.8676,3.8676,3.867,3.8671,3.8668,3.8641,3.8674,3.8738,3.8742,3.8669,3.8668,3.8667,0,3.8744,3.8751,3.8766,3.8765,3.8753,3.876,3.8755,3.8748,3.8748,3.8747,3.8746,3.8746,3.8745,3.8745,3.8727,3.8712,3.874,3.8716,3.8731,3.8732,3.8736,3.8735,3.8797,3.8742,3.8742,3.8742,3.8741,0,3.8795,3.8811,3.8788,3.8796,3.8812,3.8793,3.8809,3.8801,3.8794,3.8799,3.8778,3.8783,3.8761,3.8764,3.875,3.876,3.8761,3.8753,3.8749,3.8753,3.8754,3.875,3.8746,3.8743,3.8743,3.8742,3.8742,0,3.8851,3.8837,3.885,3.8838,3.8835,3.8846,3.8834,3.8841,3.883,3.8837,3.8838,3.882,3.8822,3.8805,3.8804,3.8795,3.8809,3.8803,3.8811,3.8808,3.8823,3.8821,3.8882,3.8888,3.8832,3.8833,3.8833,0,3.8883,3.8894,3.8882,3.8884,3.888,3.8884,3.8885,3.8866,3.8867,3.8859,3.8866,3.8866,3.8865,3.8869,3.8855,3.8853,3.8844,3.8865,3.8843,3.8846,3.884,3.8838,3.8837,3.8869,3.887,3.887,3.8871,0,3.8939,3.8931,3.8933,3.8932,3.8933,3.8931,3.8927,3.893,3.891,3.8912,3.8913,3.8912,3.891,3.8909,3.8905,3.8898,3.888,3.8878,3.8881,3.8884,3.8888,3.8882,3.882,3.8876,3.8876,3.8875,3.8875,3.8875,3.8981,3.8989,3.898,3.8982,3.8978,3.8975,3.8979,3.8969,3.897,3.8967,3.8956,3.8959,3.895,3.8942,3.8937,3.8937,3.8927,3.8932,3.8932,3.8933,3.8934,3.889,3.8937,3.8937,3.8937,3.8936,3.8936,0,3.9033,3.9027,3.9029,3.9024,3.9025,3.901,3.9005,3.9006,3.9009,3.9003,3.9002,3.9002,3.9001,3.8987,3.8984,3.8987,3.8978,3.8986,3.8984,3.8982,3.8946,3.8942,3.8993,3.8993,3.8993,3.8993,3.8993,3.8993,3.906,3.9071,3.9062,3.9069,3.9062,3.9065,3.9063,3.9059,3.9053,3.9055,3.9054,3.9045,3.9035,3.9031,3.9028,3.9024,3.9022,3.9033,3.9025,3.8991,3.8985,3.898,3.8976,3.9033,3.9033,3.9061,3.9061,3.9062]}]]